Simultaneous Nadir Overpasses (SNOs) Predictions

Prediction of SNOs between LANDSAT-8 and METOP-A Satellite Orbit:

Table of predicted SNOs for the next 14.0 days since TLE Epoch: 9/26/2020
Index Date (LANDSAT-8) Time (LANDSAT-8) Lat,Lon (LANDSAT-8) SZA (LANDSAT-8 ) Date (METOP-A) Time (METOP-A) Lat,Lon (METOP-A) SZA (METOP-A ) Distance(km) Time Diff (sec)
1 09/28/2020 10:55:24 -81.45,-117.92 93.43 09/28/2020 10:55:10 -81.45,-117.73 93.41 3.14 14
2 09/28/2020 11:44:50 81.45, 49.84 86.61 09/28/2020 11:45:50 81.44, 49.87 86.63 1.46 60
3 10/01/2020 06:29:40 -81.45, -51.57 92.33 10/01/2020 06:29:34 -81.45, -51.57 92.33 0.71 6
4 10/01/2020 07:19:06 81.45, 116.16 87.70 10/01/2020 07:20:14 81.45, 116.01 87.72 2.65 68
5 10/04/2020 01:14:28 81.46,-152.47 88.81 10/04/2020 01:13:16 81.45,-152.37 88.78 2.03 72
6 10/04/2020 02:03:55 -81.46, 15.14 91.18 10/04/2020 02:03:57 -81.45, 14.97 91.21 3.03 2
7 10/06/2020 20:48:43 81.45, -86.22 89.88 10/06/2020 20:47:39 81.45, -86.25 89.85 0.55 64
8 10/06/2020 21:38:10 -81.45, 81.41 90.11 10/06/2020 21:38:19 -81.44, 81.50 90.10 1.61 9
9 10/09/2020 16:22:58 81.46, -19.61 90.99 10/09/2020 16:22:02 81.45, -19.74 90.95 2.27 56
